Time,TemperatureF,DewpointF,PressureIn,WindDirection,WindDirectionDegrees,WindSpeedMPH,WindSpeedGustMPH,Humidity,HourlyPrecipIn,Conditions,Clouds,dailyrainin,SolarRadiationWatts/m^2,SoftwareType,DateUTC
2013-07-19 00:02:00,67.0,67.0,29.99,NNW,346,0.0,0.0,100,0.00,,,0.00,0,TxWx,2013-07-19 04:02:00,
2013-07-19 00:03:00,67.0,67.0,29.99,NNW,345,0.0,0.0,100,0.00,,,0.00,0,TxWx,2013-07-19 04:03:00,
2013-07-19 00:08:00,67.0,67.0,29.99,NNW,345,0.0,0.0,100,0.00,,,0.00,0,TxWx,2013-07-19 04:08:00,
2013-07-19 00:13:00,67.0,67.0,29.99,NNW,345,0.0,0.0,100,0.00,,,0.00,0,TxWx,2013-07-19 04:13:00,
2013-07-19 00:18:00,66.9,66.9,29.99,NNW,345,0.0,0.0,100,0.00,,,0.00,0,TxWx,2013-07-19 04:18:00,
2013-07-19 00:24:00,66.6,66.6,29.99,NNW,346,0.0,0.0,100,0.00,,,0.00,0,TxWx,2013-07-19 04:24:00,
2013-07-19 00:29:00,66.4,66.4,29.99,NNW,345,0.0,0.0,100,0.00,,,0.00,0,TxWx,2013-07-19 04:29:00,
2013-07-19 00:34:00,66.5,66.5,29.99,NNW,345,0.0,0.0,100,0.00,,,0.00,0,TxWx,2013-07-19 04:34:00,
2013-07-19 00:39:00,66.5,66.5,29.99,NNW,345,0.0,0.0,100,0.00,,,0.00,0,TxWx,2013-07-19 04:39:00,
2013-07-19 00:44:00,66.5,66.5,29.99,NNW,345,0.0,0.0,100,0.00,,,0.00,0,TxWx,2013-07-19 04:44:00,
2013-07-19 00:49:00,66.5,66.5,29.98,NNW,345,0.0,0.0,100,0.00,,,0.00,0,TxWx,2013-07-19 04:49:00,
2013-07-19 00:54:00,66.1,66.1,29.98,NNW,345,0.0,0.0,100,0.00,,,0.00,0,TxWx,2013-07-19 04:54:00,
2013-07-19 00:59:00,66.0,66.0,29.98,NNW,345,0.0,0.0,100,0.00,,,0.00,0,TxWx,2013-07-19 04:59:00,
2013-07-19 01:04:00,66.1,66.1,29.98,NNW,345,0.0,0.0,100,0.00,,,0.00,0,TxWx,2013-07-19 05:04:00,
2013-07-19 01:09:00,66.2,66.2,29.98,NNW,345,0.0,0.0,100,0.00,,,0.00,0,TxWx,2013-07-19 05:09:00,
2013-07-19 01:14:00,66.0,66.0,29.98,NNW,345,0.0,0.0,100,0.00,,,0.00,0,TxWx,2013-07-19 05:14:00,
2013-07-19 01:19:00,66.0,66.0,29.98,NNW,345,0.0,0.0,100,0.00,,,0.00,0,TxWx,2013-07-19 05:19:00,
2013-07-19 01:24:00,66.1,66.1,29.98,NNW,346,0.0,0.0,100,0.00,,,0.00,0,TxWx,2013-07-19 05:24:00,
2013-07-19 01:29:00,65.9,65.9,29.98,NNW,346,0.0,0.0,100,0.00,,,0.00,0,TxWx,2013-07-19 05:29:00,
2013-07-19 01:34:00,65.8,65.8,29.98,NNW,345,0.0,0.0,100,0.00,,,0.00,0,TxWx,2013-07-19 05:34:00,
2013-07-19 01:39:00,65.9,65.9,29.98,NNW,345,0.0,0.0,100,0.00,,,0.00,0,TxWx,2013-07-19 05:39:00,
2013-07-19 01:44:00,66.0,66.0,29.98,NNW,346,0.0,0.0,100,0.00,,,0.00,0,TxWx,2013-07-19 05:44:00,
2013-07-19 01:49:00,65.9,65.9,29.98,NNW,346,0.0,0.0,100,0.00,,,0.00,0,TxWx,2013-07-19 05:49:00,
2013-07-19 01:54:00,65.6,65.6,29.98,NNW,345,0.0,0.0,100,0.00,,,0.00,0,TxWx,2013-07-19 05:54:00,
2013-07-19 01:59:00,65.7,65.7,29.98,NNW,345,0.0,0.0,100,0.00,,,0.00,0,TxWx,2013-07-19 05:59:00,
2013-07-19 02:04:00,65.6,65.6,29.98,NNW,345,0.0,0.0,100,0.00,,,0.00,0,TxWx,2013-07-19 06:04:00,
2013-07-19 02:09:00,65.7,65.7,29.98,NNW,346,0.0,0.0,100,0.00,,,0.00,0,TxWx,2013-07-19 06:09:00,
2013-07-19 02:14:00,65.4,65.4,29.97,NNW,345,0.0,0.0,100,0.00,,,0.00,0,TxWx,2013-07-19 06:14:00,
2013-07-19 02:19:00,65.3,65.3,29.97,NNW,345,0.0,0.0,100,0.00,,,0.00,0,TxWx,2013-07-19 06:19:00,
2013-07-19 02:24:00,65.3,65.3,29.96,NNW,346,0.0,0.0,100,0.00,,,0.00,0,TxWx,2013-07-19 06:24:00,
2013-07-19 02:29:00,65.3,65.3,29.96,NNW,346,0.0,0.0,100,0.00,,,0.00,0,TxWx,2013-07-19 06:29:00,
2013-07-19 02:34:00,64.9,64.9,29.96,NNW,348,0.0,0.0,100,0.00,,,0.00,0,TxWx,2013-07-19 06:34:00,
2013-07-19 02:39:00,64.6,64.6,29.96,NNW,348,0.0,0.0,100,0.00,,,0.00,0,TxWx,2013-07-19 06:39:00,
2013-07-19 02:44:00,64.4,64.4,29.96,NNW,348,0.0,0.0,100,0.00,,,0.00,0,TxWx,2013-07-19 06:44:00,
2013-07-19 02:49:00,64.4,64.4,29.96,NNW,348,0.0,0.0,100,0.00,,,0.00,0,TxWx,2013-07-19 06:49:00,
2013-07-19 02:54:00,64.5,64.5,29.96,NNW,348,0.0,0.0,100,0.00,,,0.00,0,TxWx,2013-07-19 06:54:00,
2013-07-19 02:59:00,64.5,64.5,29.96,NNW,348,0.0,0.0,100,0.00,,,0.00,0,TxWx,2013-07-19 06:59:00,
2013-07-19 03:04:00,64.4,64.4,29.96,NNW,348,0.0,0.0,100,0.00,,,0.00,0,TxWx,2013-07-19 07:04:00,
2013-07-19 03:09:00,64.7,64.7,29.96,NNW,339,0.0,0.0,100,0.00,,,0.00,0,TxWx,2013-07-19 07:09:00,
2013-07-19 03:14:00,64.8,64.8,29.95,NNW,339,0.0,0.0,100,0.00,,,0.00,0,TxWx,2013-07-19 07:14:00,
2013-07-19 03:19:00,64.9,64.9,29.95,NNW,339,0.0,0.0,100,0.00,,,0.00,0,TxWx,2013-07-19 07:19:00,
2013-07-19 03:24:00,64.8,64.8,29.95,West,272,0.0,0.0,100,0.00,,,0.00,0,TxWx,2013-07-19 07:24:00,
2013-07-19 03:29:00,64.9,64.9,29.95,West,261,0.0,0.0,100,0.00,,,0.00,0,TxWx,2013-07-19 07:29:00,
2013-07-19 03:34:00,64.9,64.9,29.95,NW,319,0.0,0.0,100,0.00,,,0.00,0,TxWx,2013-07-19 07:34:00,
2013-07-19 03:39:00,64.7,64.7,29.95,NW,319,0.0,0.0,100,0.00,,,0.00,0,TxWx,2013-07-19 07:39:00,
2013-07-19 03:44:00,64.6,64.6,29.95,NW,320,0.0,0.0,100,0.00,,,0.00,0,TxWx,2013-07-19 07:44:00,
2013-07-19 03:49:00,64.5,64.5,29.96,NW,320,0.0,0.0,100,0.00,,,0.00,0,TxWx,2013-07-19 07:49:00,
2013-07-19 03:54:00,64.4,64.4,29.95,NW,320,0.0,0.0,100,0.00,,,0.00,0,TxWx,2013-07-19 07:54:00,
2013-07-19 03:59:00,64.2,64.2,29.95,NW,320,0.0,0.0,100,0.00,,,0.00,0,TxWx,2013-07-19 07:59:00,
2013-07-19 04:04:00,64.0,64.0,29.95,NW,319,0.0,0.0,100,0.00,,,0.00,0,TxWx,2013-07-19 08:04:00,
2013-07-19 04:09:00,63.8,63.8,29.95,NW,319,0.0,0.0,100,0.00,,,0.00,0,TxWx,2013-07-19 08:09:00,
2013-07-19 04:14:00,63.7,63.7,29.95,NW,319,0.0,0.0,100,0.00,,,0.00,0,TxWx,2013-07-19 08:14:00,
2013-07-19 04:19:00,63.6,63.6,29.95,NW,319,0.0,0.0,100,0.00,,,0.00,0,TxWx,2013-07-19 08:19:00,
2013-07-19 04:24:00,63.6,63.6,29.95,NW,319,0.0,0.0,100,0.00,,,0.00,0,TxWx,2013-07-19 08:24:00,
2013-07-19 04:29:00,63.5,63.5,29.95,NW,319,0.0,0.0,100,0.00,,,0.00,0,TxWx,2013-07-19 08:29:00,
2013-07-19 04:34:00,63.3,63.3,29.95,NNW,333,1.1,2.0,100,0.00,,,0.00,0,TxWx,2013-07-19 08:34:00,
2013-07-19 04:39:00,63.1,63.1,29.95,NNW,334,1.1,1.1,100,0.00,,,0.00,0,TxWx,2013-07-19 08:39:00,
2013-07-19 04:44:00,63.1,63.1,29.95,NNW,334,0.0,0.0,100,0.00,,,0.00,0,TxWx,2013-07-19 08:44:00,
2013-07-19 04:49:00,63.3,63.3,29.95,NNW,334,0.0,0.0,100,0.00,,,0.00,0,TxWx,2013-07-19 08:49:00,
2013-07-19 04:54:00,63.4,63.4,29.95,NNW,334,0.0,0.0,100,0.00,,,0.00,0,TxWx,2013-07-19 08:54:00,
2013-07-19 04:59:00,63.3,63.3,29.95,NNW,334,0.0,0.0,100,0.00,,,0.00,0,TxWx,2013-07-19 08:59:00,
2013-07-19 05:04:00,63.1,63.1,29.94,NNW,334,0.0,0.0,100,0.00,,,0.00,0,TxWx,2013-07-19 09:04:00,
2013-07-19 05:09:00,63.0,63.0,29.94,NNW,334,0.0,0.0,100,0.00,,,0.00,0,TxWx,2013-07-19 09:09:00,
2013-07-19 05:14:00,63.2,63.2,29.95,NNW,334,0.0,0.0,100,0.00,,,0.00,0,TxWx,2013-07-19 09:14:00,
2013-07-19 05:19:00,63.2,63.2,29.94,NNW,334,0.0,0.0,100,0.00,,,0.00,0,TxWx,2013-07-19 09:19:00,
2013-07-19 05:26:00,63.2,63.2,29.95,NNW,334,0.0,0.0,100,0.00,,,0.00,0,TxWx,2013-07-19 09:26:00,
2013-07-19 05:31:00,63.1,63.1,29.95,NNW,334,0.0,0.0,100,0.00,,,0.00,0,TxWx,2013-07-19 09:31:00,
2013-07-19 05:36:00,63.0,63.0,29.95,NNW,334,0.0,0.0,100,0.00,,,0.00,0,TxWx,2013-07-19 09:36:00,
2013-07-19 05:41:00,62.9,62.9,29.95,NNW,334,0.0,0.0,100,0.00,,,0.00,0,TxWx,2013-07-19 09:41:00,
2013-07-19 05:46:00,62.7,62.7,29.95,NNW,334,0.0,0.0,100,0.00,,,0.00,0,TxWx,2013-07-19 09:46:00,
2013-07-19 05:51:00,62.8,62.8,29.94,NNW,334,0.0,0.0,100,0.00,,,0.00,0,TxWx,2013-07-19 09:51:00,
2013-07-19 05:56:00,62.9,62.9,29.94,NNW,334,0.0,0.0,100,0.00,,,0.00,0,TxWx,2013-07-19 09:56:00,
2013-07-19 06:01:00,62.8,62.8,29.95,NNW,334,1.1,1.1,100,0.00,,,0.00,0,TxWx,2013-07-19 10:01:00,
2013-07-19 06:06:00,62.9,62.9,29.95,NNW,334,0.0,0.0,100,0.00,,,0.00,0,TxWx,2013-07-19 10:06:00,
2013-07-19 06:11:00,62.8,62.8,29.95,NW,325,1.1,1.1,100,0.00,,,0.00,0,TxWx,2013-07-19 10:11:00,
2013-07-19 06:16:00,62.6,62.6,29.95,NW,325,0.0,0.0,100,0.00,,,0.00,0,TxWx,2013-07-19 10:16:00,
2013-07-19 06:21:00,62.5,62.5,29.95,NW,325,0.0,0.0,100,0.00,,,0.00,1,TxWx,2013-07-19 10:21:00,
2013-07-19 06:26:00,62.6,62.6,29.95,NW,324,0.0,0.0,100,0.00,,,0.00,1,TxWx,2013-07-19 10:26:00,
2013-07-19 06:31:00,62.5,62.5,29.95,NW,324,0.0,0.0,100,0.00,,,0.00,2,TxWx,2013-07-19 10:31:00,
2013-07-19 06:36:00,62.6,62.6,29.95,NW,323,0.0,0.0,100,0.00,,,0.00,3,TxWx,2013-07-19 10:36:00,
2013-07-19 06:41:00,62.8,62.8,29.95,NW,323,0.0,0.0,100,0.00,,,0.00,4,TxWx,2013-07-19 10:41:00,
2013-07-19 06:46:00,62.5,62.5,29.95,NNW,329,0.0,0.0,100,0.00,,,0.00,5,TxWx,2013-07-19 10:46:00,
2013-07-19 06:51:00,62.3,62.3,29.95,NNW,329,0.0,0.0,100,0.00,,,0.00,6,TxWx,2013-07-19 10:51:00,
2013-07-19 06:56:00,62.2,62.2,29.95,NNW,329,0.0,0.0,100,0.00,,,0.00,7,TxWx,2013-07-19 10:56:00,
2013-07-19 07:01:00,62.2,62.2,29.95,NNW,329,0.0,0.0,100,0.00,,,0.00,8,TxWx,2013-07-19 11:01:00,
2013-07-19 07:06:00,62.2,62.2,29.96,NNW,329,0.0,0.0,100,0.00,,,0.00,9,TxWx,2013-07-19 11:06:00,
2013-07-19 07:11:00,62.3,62.3,29.96,NNW,329,0.0,0.0,100,0.00,,,0.00,11,TxWx,2013-07-19 11:11:00,
2013-07-19 07:16:00,62.4,62.4,29.96,NW,323,0.0,0.0,100,0.00,,,0.00,11,TxWx,2013-07-19 11:16:00,
2013-07-19 07:21:00,62.4,62.4,29.96,NW,323,0.0,0.0,100,0.00,,,0.00,12,TxWx,2013-07-19 11:21:00,
2013-07-19 07:26:00,62.4,62.4,29.96,NW,323,0.0,0.0,100,0.00,,,0.00,12,TxWx,2013-07-19 11:26:00,
2013-07-19 07:31:00,62.7,62.7,29.96,NW,323,0.0,0.0,100,0.00,,,0.00,13,TxWx,2013-07-19 11:31:00,
2013-07-19 07:36:00,62.9,62.9,29.96,NW,323,0.0,0.0,100,0.00,,,0.00,13,TxWx,2013-07-19 11:36:00,
2013-07-19 07:41:00,62.7,62.7,29.96,NW,326,0.0,0.0,100,0.00,,,0.00,14,TxWx,2013-07-19 11:41:00,
2013-07-19 07:46:00,62.6,62.6,29.96,NNW,327,0.0,0.0,100,0.00,,,0.00,15,TxWx,2013-07-19 11:46:00,
2013-07-19 07:51:00,62.5,62.5,29.96,NNW,327,0.0,0.0,100,0.00,,,0.00,15,TxWx,2013-07-19 11:51:00,
2013-07-19 07:56:00,62.5,62.5,29.96,NNW,327,0.0,0.0,100,0.00,,,0.00,16,TxWx,2013-07-19 11:56:00,
2013-07-19 08:01:00,62.5,62.5,29.96,NNW,327,0.0,0.0,100,0.00,,,0.00,17,TxWx,2013-07-19 12:01:00,
2013-07-19 08:06:00,62.8,62.8,29.96,NNW,327,0.0,0.0,100,0.00,,,0.00,19,TxWx,2013-07-19 12:06:00,
2013-07-19 08:11:00,63.0,63.0,29.97,NNW,327,0.0,0.0,100,0.00,,,0.00,20,TxWx,2013-07-19 12:11:00,
2013-07-19 08:16:00,63.3,63.3,29.97,NNW,327,0.0,0.0,100,0.00,,,0.00,21,TxWx,2013-07-19 12:16:00,
2013-07-19 08:21:00,63.4,63.4,29.97,NNW,327,0.0,0.0,100,0.00,,,0.00,23,TxWx,2013-07-19 12:21:00,
2013-07-19 08:26:00,63.6,63.6,29.97,NNW,327,0.0,0.0,100,0.00,,,0.00,24,TxWx,2013-07-19 12:26:00,
2013-07-19 08:31:00,63.8,63.8,29.97,NNW,327,0.0,0.0,100,0.00,,,0.00,26,TxWx,2013-07-19 12:31:00,
2013-07-19 08:37:00,63.9,63.9,29.97,NW,324,0.0,0.0,100,0.00,,,0.00,28,TxWx,2013-07-19 12:37:00,
2013-07-19 08:41:00,64.0,64.0,29.97,NW,324,0.0,0.0,100,0.00,,,0.00,32,TxWx,2013-07-19 12:41:00,
2013-07-19 08:47:00,64.0,64.0,29.97,North,351,0.0,0.0,100,0.00,,,0.00,32,TxWx,2013-07-19 12:47:00,
2013-07-19 08:52:00,64.2,64.2,29.97,North,351,0.0,0.0,100,0.00,,,0.00,33,TxWx,2013-07-19 12:52:00,
2013-07-19 08:57:00,64.3,64.3,29.97,North,351,0.0,0.0,100,0.00,,,0.00,36,TxWx,2013-07-19 12:57:00,
2013-07-19 09:02:00,64.6,64.6,29.98,North,351,0.0,0.0,100,0.00,,,0.00,43,TxWx,2013-07-19 13:02:00,
2013-07-19 09:07:00,64.9,64.9,29.97,North,351,0.0,0.0,100,0.00,,,0.00,38,TxWx,2013-07-19 13:07:00,
2013-07-19 09:12:00,65.1,65.1,29.97,NNW,348,0.0,0.0,100,0.00,,,0.00,39,TxWx,2013-07-19 13:12:00,
2013-07-19 09:17:00,65.3,65.3,29.97,NNW,342,1.1,1.1,100,0.00,,,0.00,43,TxWx,2013-07-19 13:17:00,
2013-07-19 09:22:00,65.5,65.5,29.97,NNW,348,0.0,1.0,100,0.00,,,0.00,48,TxWx,2013-07-19 13:22:00,
2013-07-19 09:26:00,65.7,65.7,29.97,North,11,0.0,0.0,100,0.00,,,0.00,48,TxWx,2013-07-19 13:26:00,
2013-07-19 09:31:00,65.9,65.9,29.97,NNW,348,0.0,0.0,100,0.00,,,0.00,52,TxWx,2013-07-19 13:31:00,
2013-07-19 09:36:00,66.0,66.0,29.97,North,2,1.1,1.1,100,0.00,,,0.00,62,TxWx,2013-07-19 13:36:00,
2013-07-19 09:41:00,66.4,66.4,29.97,NW,323,0.0,0.0,100,0.00,,,0.00,66,TxWx,2013-07-19 13:41:00,
2013-07-19 09:46:00,66.7,66.7,29.97,North,349,0.0,0.0,100,0.00,,,0.00,65,TxWx,2013-07-19 13:46:00,
2013-07-19 09:51:00,67.0,67.0,29.97,East,83,0.0,0.0,100,0.00,,,0.00,83,TxWx,2013-07-19 13:51:00,
2013-07-19 09:56:00,67.4,67.4,29.98,SSW,193,0.0,0.0,100,0.00,,,0.00,87,TxWx,2013-07-19 13:56:00,
2013-07-19 10:01:00,67.9,67.9,29.98,SW,219,0.0,0.0,100,0.00,,,0.00,84,TxWx,2013-07-19 14:01:00,
2013-07-19 10:06:00,68.3,68.3,29.98,South,176,0.0,0.0,100,0.00,,,0.00,104,TxWx,2013-07-19 14:06:00,
2013-07-19 10:11:00,68.7,68.7,29.98,SW,224,0.0,0.0,100,0.00,,,0.00,93,TxWx,2013-07-19 14:11:00,
2013-07-19 10:16:00,68.9,68.9,29.97,SE,143,1.1,1.1,100,0.00,,,0.00,85,TxWx,2013-07-19 14:16:00,
2013-07-19 10:21:00,69.4,69.4,29.97,West,275,0.0,0.0,100,0.00,,,0.00,74,TxWx,2013-07-19 14:21:00,
2013-07-19 10:26:00,69.5,69.5,29.97,NE,51,0.0,0.0,100,0.00,,,0.00,72,TxWx,2013-07-19 14:26:00,
2013-07-19 10:31:00,69.6,69.6,29.97,ENE,61,0.0,1.0,100,0.00,,,0.00,81,TxWx,2013-07-19 14:31:00,
2013-07-19 10:36:00,69.9,69.9,29.97,ENE,74,1.1,1.1,100,0.00,,,0.00,75,TxWx,2013-07-19 14:36:00,
2013-07-19 10:41:00,70.1,70.1,29.97,East,99,1.1,1.1,100,0.00,,,0.00,85,TxWx,2013-07-19 14:41:00,
2013-07-19 10:46:00,70.4,70.4,29.97,ENE,76,2.4,2.4,100,0.00,,,0.00,70,TxWx,2013-07-19 14:46:00,
2013-07-19 10:51:00,70.5,70.5,29.97,NE,50,1.1,1.1,100,0.00,,,0.00,70,TxWx,2013-07-19 14:51:00,
2013-07-19 10:56:00,70.7,70.7,29.97,NE,51,1.1,2.0,100,0.00,,,0.00,71,TxWx,2013-07-19 14:56:00,
2013-07-19 11:01:00,70.9,70.9,29.97,NE,51,1.1,1.1,100,0.00,,,0.00,70,TxWx,2013-07-19 15:01:00,
2013-07-19 11:06:00,71.1,71.1,29.97,SSE,152,1.1,1.1,100,0.00,,,0.00,74,TxWx,2013-07-19 15:06:00,
2013-07-19 11:11:00,71.1,71.1,29.97,SW,234,1.1,1.1,100,0.00,,,0.00,97,TxWx,2013-07-19 15:11:00,
2013-07-19 11:16:00,71.5,71.5,29.97,SE,145,1.1,1.1,100,0.00,,,0.00,91,TxWx,2013-07-19 15:16:00,
2013-07-19 11:21:00,72.2,72.2,29.97,NE,41,1.1,1.1,100,0.00,,,0.00,101,TxWx,2013-07-19 15:21:00,
2013-07-19 11:26:00,72.4,72.4,29.97,SE,145,1.1,1.1,100,0.00,,,0.00,149,TxWx,2013-07-19 15:26:00,
2013-07-19 11:31:00,73.0,73.0,29.97,North,3,0.0,1.0,100,0.00,,,0.00,92,TxWx,2013-07-19 15:31:00,
2013-07-19 11:36:00,72.9,72.5,29.97,SW,214,1.1,2.0,98,0.00,,,0.00,83,TxWx,2013-07-19 15:36:00,
2013-07-19 11:41:00,72.7,72.4,29.97,SSW,193,1.1,2.0,98,0.00,,,0.00,113,TxWx,2013-07-19 15:41:00,
2013-07-19 11:46:00,72.7,72.5,29.97,East,79,1.1,1.1,99,0.00,,,0.00,100,TxWx,2013-07-19 15:46:00,
2013-07-19 11:51:00,72.6,72.1,29.97,SE,125,1.1,1.1,98,0.00,,,0.00,129,TxWx,2013-07-19 15:51:00,
2013-07-19 11:56:00,72.8,72.6,29.97,ESE,123,1.1,1.1,99,0.00,,,0.00,618,TxWx,2013-07-19 15:56:00,
2013-07-19 12:01:00,73.3,72.4,29.97,SSE,147,1.1,1.1,97,0.00,,,0.00,660,TxWx,2013-07-19 16:01:00,
2013-07-19 12:06:00,74.2,72.2,29.97,NNE,29,0.0,1.0,93,0.00,,,0.00,674,TxWx,2013-07-19 16:06:00,
2013-07-19 12:11:00,74.9,73.1,29.97,ENE,73,1.1,1.1,94,0.00,,,0.00,654,TxWx,2013-07-19 16:11:00,
2013-07-19 12:16:00,75.4,73.1,29.97,SSW,195,1.1,1.1,92,0.00,,,0.00,656,TxWx,2013-07-19 16:16:00,
2013-07-19 12:21:00,76.1,72.0,29.97,NNE,12,0.0,1.0,87,0.00,,,0.00,693,TxWx,2013-07-19 16:21:00,
2013-07-19 12:26:00,76.9,71.2,29.97,North,349,0.0,0.0,82,0.00,,,0.00,717,TxWx,2013-07-19 16:26:00,
2013-07-19 12:31:00,77.7,70.9,29.97,ESE,120,1.1,2.0,79,0.00,,,0.00,744,TxWx,2013-07-19 16:31:00,
2013-07-19 12:36:00,77.3,72.3,29.96,South,182,1.1,1.1,84,0.00,,,0.00,742,TxWx,2013-07-19 16:36:00,
2013-07-19 12:41:00,77.3,72.3,29.96,SSW,192,1.1,1.1,84,0.00,,,0.00,747,TxWx,2013-07-19 16:41:00,
2013-07-19 12:46:00,77.8,73.4,29.96,SW,235,1.1,1.1,86,0.00,,,0.00,754,TxWx,2013-07-19 16:46:00,
2013-07-19 12:51:00,78.1,72.7,29.96,West,260,0.0,1.0,83,0.00,,,0.00,778,TxWx,2013-07-19 16:51:00,
2013-07-19 12:56:00,78.8,71.6,29.95,SSW,208,2.4,2.4,78,0.00,,,0.00,782,TxWx,2013-07-19 16:56:00,
2013-07-19 13:01:00,77.9,72.0,29.95,WSW,239,1.1,1.1,82,0.00,,,0.00,776,TxWx,2013-07-19 17:01:00,
2013-07-19 13:06:00,78.7,71.5,29.95,West,260,0.0,0.0,78,0.00,,,0.00,779,TxWx,2013-07-19 17:06:00,
2013-07-19 13:11:00,78.3,71.5,29.95,SSE,165,2.4,2.4,79,0.00,,,0.00,793,TxWx,2013-07-19 17:11:00,
2013-07-19 13:16:00,78.3,70.5,29.95,ESE,107,1.1,1.1,77,0.00,,,0.00,805,TxWx,2013-07-19 17:16:00,
2013-07-19 13:21:00,79.2,71.1,29.94,ENE,73,1.1,1.1,76,0.00,,,0.00,817,TxWx,2013-07-19 17:21:00,
2013-07-19 13:26:00,78.6,72.9,29.94,NE,48,1.1,1.1,82,0.00,,,0.00,832,TxWx,2013-07-19 17:26:00,
2013-07-19 13:31:00,78.9,73.6,29.94,South,181,1.1,1.1,83,0.00,,,0.00,843,TxWx,2013-07-19 17:31:00,
2013-07-19 13:36:00,79.4,72.4,29.94,WSW,244,2.4,2.4,79,0.00,,,0.00,843,TxWx,2013-07-19 17:36:00,
2013-07-19 13:41:00,79.6,72.2,29.94,WNW,283,1.1,1.1,78,0.00,,,0.00,825,TxWx,2013-07-19 17:41:00,
2013-07-19 13:46:00,79.1,69.1,29.94,SW,218,1.1,1.1,71,0.00,,,0.00,775,TxWx,2013-07-19 17:46:00,
2013-07-19 13:51:00,78.8,70.0,29.94,South,181,1.1,2.0,74,0.00,,,0.00,92,TxWx,2013-07-19 17:51:00,
2013-07-19 13:56:00,77.6,68.9,29.93,SE,146,1.1,2.0,74,0.00,,,0.00,860,TxWx,2013-07-19 17:56:00,
2013-07-19 14:01:00,77.9,66.7,29.93,NW,305,1.1,1.1,68,0.00,,,0.00,863,TxWx,2013-07-19 18:01:00,
2013-07-19 14:06:00,78.7,68.2,29.93,SW,231,2.4,2.4,70,0.00,,,0.00,864,TxWx,2013-07-19 18:06:00,
2013-07-19 14:11:00,79.0,70.6,29.92,SSE,166,0.0,0.0,75,0.00,,,0.00,878,TxWx,2013-07-19 18:11:00,
2013-07-19 14:16:00,79.9,69.1,29.92,SW,224,0.0,1.0,69,0.00,,,0.00,928,TxWx,2013-07-19 18:16:00,
2013-07-19 14:21:00,80.5,71.5,29.92,ENE,57,1.1,2.0,74,0.00,,,0.00,530,TxWx,2013-07-19 18:21:00,
2013-07-19 14:26:00,81.1,71.7,29.92,NE,54,1.1,1.1,73,0.00,,,0.00,721,TxWx,2013-07-19 18:26:00,
2013-07-19 14:31:00,80.7,71.2,29.92,East,96,1.1,2.0,72,0.00,,,0.00,855,TxWx,2013-07-19 18:31:00,
2013-07-19 14:36:00,81.0,72.9,29.92,ESE,111,2.4,2.4,76,0.00,,,0.00,831,TxWx,2013-07-19 18:36:00,
2013-07-19 14:41:00,81.4,71.8,29.91,NW,318,0.0,1.0,72,0.00,,,0.00,748,TxWx,2013-07-19 18:41:00,
2013-07-19 14:46:00,82.3,73.2,29.91,ESE,109,1.1,1.1,74,0.00,,,0.00,870,TxWx,2013-07-19 18:46:00,
2013-07-19 14:51:00,82.3,74.1,29.91,East,80,0.0,1.0,76,0.00,,,0.00,395,TxWx,2013-07-19 18:51:00,
2013-07-19 14:56:00,82.1,74.1,29.91,North,0,0.0,0.0,76,0.00,,,0.00,824,TxWx,2013-07-19 18:56:00,
2013-07-19 15:01:00,82.5,71.9,29.91,NNW,327,1.1,1.1,70,0.00,,,0.00,782,TxWx,2013-07-19 19:01:00,
2013-07-19 15:06:00,82.5,70.3,29.91,NW,314,0.0,1.0,66,0.00,,,0.00,572,TxWx,2013-07-19 19:06:00,
2013-07-19 15:11:00,82.6,71.0,29.91,NNW,331,0.0,0.0,68,0.00,,,0.00,409,TxWx,2013-07-19 19:11:00,
2013-07-19 15:16:00,82.7,73.5,29.91,WSW,252,0.0,1.0,73,0.00,,,0.00,702,TxWx,2013-07-19 19:16:00,
2013-07-19 15:21:00,82.8,71.6,29.91,NE,48,1.1,1.1,69,0.00,,,0.00,807,TxWx,2013-07-19 19:21:00,
2013-07-19 15:26:00,81.6,73.5,29.91,East,80,1.1,1.1,76,0.00,,,0.00,254,TxWx,2013-07-19 19:26:00,
2013-07-19 15:31:00,80.6,72.0,29.90,NE,39,1.1,1.1,75,0.00,,,0.00,691,TxWx,2013-07-19 19:31:00,
2013-07-19 15:36:00,80.5,73.1,29.90,WNW,295,1.1,1.1,78,0.00,,,0.00,675,TxWx,2013-07-19 19:36:00,
2013-07-19 15:41:00,81.0,70.7,29.90,West,277,1.1,1.1,71,0.00,,,0.00,622,TxWx,2013-07-19 19:41:00,
2013-07-19 15:46:00,81.6,71.0,29.90,NE,50,1.1,1.1,70,0.00,,,0.00,645,TxWx,2013-07-19 19:46:00,
2013-07-19 15:51:00,81.4,70.0,29.89,NW,306,1.1,1.1,68,0.00,,,0.00,634,TxWx,2013-07-19 19:51:00,
2013-07-19 15:56:00,81.2,71.6,29.89,WSW,257,1.1,1.1,72,0.00,,,0.00,628,TxWx,2013-07-19 19:56:00,
2013-07-19 16:01:00,82.2,72.0,29.89,NW,326,1.1,1.1,71,0.00,,,0.00,631,TxWx,2013-07-19 20:01:00,
2013-07-19 16:06:00,82.4,71.2,29.89,NW,306,1.1,1.1,68,0.00,,,0.00,623,TxWx,2013-07-19 20:06:00,
2013-07-19 16:11:00,83.6,73.7,29.89,ESE,110,2.4,2.4,72,0.00,,,0.00,613,TxWx,2013-07-19 20:11:00,
2013-07-19 16:16:00,83.7,73.3,29.88,East,94,1.1,2.0,71,0.00,,,0.00,635,TxWx,2013-07-19 20:16:00,
2013-07-19 16:21:00,83.3,73.6,29.88,East,88,1.1,1.1,72,0.00,,,0.00,582,TxWx,2013-07-19 20:21:00,
2013-07-19 16:26:00,81.9,69.3,29.88,West,279,1.1,2.0,65,0.00,,,0.00,517,TxWx,2013-07-19 20:26:00,
2013-07-19 16:31:00,81.8,72.5,29.88,WNW,282,2.4,2.4,73,0.00,,,0.00,533,TxWx,2013-07-19 20:31:00,
2013-07-19 16:36:00,81.8,71.1,29.88,WSW,246,1.1,1.1,70,0.00,,,0.00,487,TxWx,2013-07-19 20:36:00,
2013-07-19 16:41:00,82.4,74.3,29.88,North,351,0.0,1.0,76,0.00,,,0.00,492,TxWx,2013-07-19 20:41:00,
2013-07-19 16:46:00,82.6,73.9,29.88,NNW,348,1.1,1.1,75,0.00,,,0.00,504,TxWx,2013-07-19 20:46:00,
2013-07-19 16:51:00,83.1,70.7,29.88,West,266,0.0,0.0,66,0.00,,,0.00,523,TxWx,2013-07-19 20:51:00,
2013-07-19 16:56:00,83.8,73.0,29.88,NNW,348,1.1,1.1,70,0.00,,,0.00,503,TxWx,2013-07-19 20:56:00,
2013-07-19 17:01:00,84.4,74.3,29.88,NE,52,1.1,1.1,71,0.00,,,0.00,487,TxWx,2013-07-19 21:01:00,
2013-07-19 17:06:00,83.8,74.1,29.87,NE,38,0.0,1.0,72,0.00,,,0.00,495,TxWx,2013-07-19 21:06:00,
2013-07-19 17:11:00,83.9,73.1,29.87,NW,324,0.0,0.0,70,0.00,,,0.00,127,TxWx,2013-07-19 21:11:00,
2013-07-19 17:16:00,82.3,72.0,29.87,ENE,74,1.1,1.1,71,0.00,,,0.00,83,TxWx,2013-07-19 21:16:00,
2013-07-19 17:21:00,80.3,72.1,29.87,ENE,74,1.1,1.1,76,0.00,,,0.00,459,TxWx,2013-07-19 21:21:00,
2013-07-19 17:26:00,80.7,73.9,29.87,NE,49,1.1,1.1,79,0.00,,,0.00,454,TxWx,2013-07-19 21:26:00,
2013-07-19 17:31:00,80.1,73.5,29.86,East,84,1.1,2.0,80,0.00,,,0.00,86,TxWx,2013-07-19 21:31:00,
2013-07-19 17:36:00,79.2,74.3,29.87,ENE,66,0.0,1.0,85,0.00,,,0.00,62,TxWx,2013-07-19 21:36:00,
2013-07-19 17:41:00,77.8,72.9,29.87,ENE,64,1.1,1.1,85,0.00,,,0.00,60,TxWx,2013-07-19 21:41:00,
2013-07-19 17:46:00,76.3,72.6,29.87,ENE,65,1.1,1.1,88,0.00,,,0.00,94,TxWx,2013-07-19 21:46:00,
2013-07-19 17:51:00,75.6,72.6,29.86,ENE,65,1.1,1.1,90,0.00,,,0.00,42,TxWx,2013-07-19 21:51:00,
2013-07-19 17:56:00,75.2,72.5,29.87,ENE,66,0.0,1.0,91,0.00,,,0.00,50,TxWx,2013-07-19 21:56:00,
2013-07-19 18:01:00,75.1,72.6,29.87,ENE,65,0.0,1.0,91,0.00,,,0.00,63,TxWx,2013-07-19 22:01:00,
2013-07-19 18:06:00,75.0,72.7,29.86,ENE,62,0.0,1.0,92,0.00,,,0.00,327,TxWx,2013-07-19 22:06:00,
2013-07-19 18:11:00,74.9,72.6,29.86,ENE,63,1.1,1.1,92,0.00,,,0.00,75,TxWx,2013-07-19 22:11:00,
2013-07-19 18:16:00,74.9,72.6,29.86,ENE,62,0.0,1.0,92,0.00,,,0.00,79,TxWx,2013-07-19 22:16:00,
2013-07-19 18:21:00,74.8,72.4,29.86,ENE,61,1.1,1.1,92,0.00,,,0.00,41,TxWx,2013-07-19 22:21:00,
2013-07-19 18:26:00,74.6,71.8,29.86,ENE,61,1.1,1.1,91,0.00,,,0.00,45,TxWx,2013-07-19 22:26:00,
2013-07-19 18:31:00,74.6,72.0,29.87,NE,55,1.1,1.1,91,0.00,,,0.00,36,TxWx,2013-07-19 22:31:00,
2013-07-19 18:36:00,74.2,71.8,29.87,NE,54,1.1,1.1,92,0.00,,,0.00,36,TxWx,2013-07-19 22:36:00,
2013-07-19 18:41:00,74.2,71.4,29.87,NE,50,0.0,1.0,91,0.00,,,0.00,38,TxWx,2013-07-19 22:41:00,
2013-07-19 18:46:00,74.1,71.5,29.86,NE,48,2.4,2.4,91,0.00,,,0.00,44,TxWx,2013-07-19 22:46:00,
2013-07-19 18:51:00,73.9,72.2,29.86,West,260,1.1,1.1,94,0.00,,,0.00,60,TxWx,2013-07-19 22:51:00,
2013-07-19 18:56:00,72.7,72.1,29.86,South,189,2.4,2.4,97,0.00,,,0.00,120,TxWx,2013-07-19 22:56:00,
2013-07-19 19:01:00,72.4,72.4,29.86,NW,326,1.1,1.1,100,0.00,,,0.00,134,TxWx,2013-07-19 23:01:00,
2013-07-19 19:06:00,72.0,72.0,29.86,North,2,0.0,0.0,100,0.00,,,0.00,78,TxWx,2013-07-19 23:06:00,
2013-07-19 19:11:00,71.2,71.2,29.86,SSE,166,0.0,0.0,100,0.00,,,0.00,39,TxWx,2013-07-19 23:11:00,
2013-07-19 19:16:00,71.0,71.0,29.86,SSE,165,0.0,0.0,100,0.00,,,0.00,22,TxWx,2013-07-19 23:16:00,
2013-07-19 19:21:00,70.6,70.6,29.86,NNW,348,1.1,1.1,100,0.00,,,0.00,13,TxWx,2013-07-19 23:21:00,
2013-07-19 19:26:00,70.0,70.0,29.87,NNW,344,0.0,1.0,100,0.00,,,0.00,13,TxWx,2013-07-19 23:26:00,
2013-07-19 19:31:00,69.7,69.7,29.87,NE,54,1.1,1.1,100,0.00,,,0.00,10,TxWx,2013-07-19 23:31:00,
2013-07-19 19:36:00,69.4,69.4,29.88,NW,318,0.0,0.0,100,0.00,,,0.00,12,TxWx,2013-07-19 23:36:00,
2013-07-19 19:41:00,68.8,68.8,29.88,SE,139,1.1,1.1,100,0.00,,,0.00,16,TxWx,2013-07-19 23:41:00,
2013-07-19 19:46:00,68.8,68.8,29.88,NNE,24,1.1,1.1,100,0.00,,,0.00,19,TxWx,2013-07-19 23:46:00,
2013-07-19 19:51:00,68.8,68.8,29.88,North,7,1.1,1.1,100,0.00,,,0.00,16,TxWx,2013-07-19 23:51:00,
2013-07-19 19:56:00,68.7,68.7,29.88,SW,223,2.4,2.4,100,0.00,,,0.00,10,TxWx,2013-07-19 23:56:00,
2013-07-19 20:01:00,68.2,68.2,29.89,SE,146,2.4,2.4,100,0.00,,,0.00,9,TxWx,2013-07-20 00:01:00,
2013-07-19 20:06:00,68.3,68.3,29.88,SSE,147,0.0,0.0,100,0.00,,,0.00,9,TxWx,2013-07-20 00:06:00,
2013-07-19 20:11:00,68.5,68.5,29.87,SE,146,0.0,0.0,100,0.00,,,0.00,11,TxWx,2013-07-20 00:11:00,
2013-07-19 20:16:00,68.3,68.3,29.88,NNW,339,0.0,0.0,100,0.00,,,0.00,8,TxWx,2013-07-20 00:16:00,
2013-07-19 20:21:00,68.3,68.3,29.88,NNW,339,1.1,1.1,100,0.00,,,0.00,7,TxWx,2013-07-20 00:21:00,
2013-07-19 20:26:00,68.5,68.5,29.88,SW,214,2.4,2.4,100,0.00,,,0.00,7,TxWx,2013-07-20 00:26:00,
2013-07-19 20:31:00,68.5,68.5,29.89,NNW,348,1.1,1.1,100,0.00,,,0.00,5,TxWx,2013-07-20 00:31:00,
2013-07-19 20:36:00,68.3,68.3,29.90,NNW,347,0.0,1.0,100,0.00,,,0.00,4,TxWx,2013-07-20 00:36:00,
2013-07-19 20:41:00,68.3,68.3,29.89,NNW,347,0.0,1.0,100,0.00,,,0.00,3,TxWx,2013-07-20 00:41:00,
2013-07-19 20:46:00,68.2,68.2,29.89,NNW,347,0.0,0.0,100,0.00,,,0.00,3,TxWx,2013-07-20 00:46:00,
2013-07-19 20:51:00,68.2,68.2,29.90,NNW,348,0.0,0.0,100,0.00,,,0.00,1,TxWx,2013-07-20 00:51:00,
2013-07-19 20:56:00,67.8,67.8,29.90,NNW,347,0.0,0.0,100,0.00,,,0.00,0,TxWx,2013-07-20 00:56:00,
2013-07-19 21:01:00,67.5,67.5,29.90,ENE,69,0.0,0.0,100,0.00,,,0.00,0,TxWx,2013-07-20 01:01:00,
2013-07-19 21:06:00,67.6,67.6,29.90,WSW,258,1.1,1.1,100,0.00,,,0.00,0,TxWx,2013-07-20 01:06:00,
2013-07-19 21:11:00,67.5,67.5,29.90,SW,235,0.0,1.0,100,0.00,,,0.00,0,TxWx,2013-07-20 01:11:00,
2013-07-19 21:16:00,67.6,67.6,29.89,WNW,287,0.0,0.0,100,0.00,,,0.00,0,TxWx,2013-07-20 01:16:00,
2013-07-19 21:21:00,67.6,67.6,29.89,WNW,288,0.0,0.0,100,0.00,,,0.00,0,TxWx,2013-07-20 01:21:00,
2013-07-19 21:26:00,67.5,67.5,29.89,WNW,288,0.0,0.0,100,0.00,,,0.00,0,TxWx,2013-07-20 01:26:00,
2013-07-19 21:31:00,67.3,67.3,29.89,WNW,288,0.0,0.0,100,0.00,,,0.00,0,TxWx,2013-07-20 01:31:00,
2013-07-19 21:36:00,67.2,67.2,29.90,SW,234,1.1,1.1,100,0.00,,,0.00,0,TxWx,2013-07-20 01:36:00,
2013-07-19 21:41:00,67.2,67.2,29.90,West,278,0.0,1.0,100,0.00,,,0.00,0,TxWx,2013-07-20 01:41:00,
2013-07-19 21:46:00,67.3,67.3,29.90,WNW,301,0.0,0.0,100,0.00,,,0.00,0,TxWx,2013-07-20 01:46:00,
2013-07-19 21:51:00,67.3,67.3,29.91,WNW,301,0.0,0.0,100,0.00,,,0.00,0,TxWx,2013-07-20 01:51:00,
2013-07-19 21:56:00,67.3,67.3,29.91,WNW,301,0.0,0.0,100,0.00,,,0.00,0,TxWx,2013-07-20 01:56:00,
2013-07-19 22:01:00,67.3,67.3,29.91,WNW,301,0.0,0.0,100,0.00,,,0.00,0,TxWx,2013-07-20 02:01:00,
2013-07-19 22:06:00,67.2,67.2,29.91,WNW,299,0.0,0.0,100,0.00,,,0.00,0,TxWx,2013-07-20 02:06:00,
2013-07-19 22:11:00,67.2,67.2,29.91,WNW,299,0.0,0.0,100,0.00,,,0.00,0,TxWx,2013-07-20 02:11:00,
2013-07-19 22:16:00,67.1,67.1,29.91,WNW,300,0.0,0.0,100,0.00,,,0.00,0,TxWx,2013-07-20 02:16:00,
2013-07-19 22:21:00,67.1,67.1,29.91,WNW,299,0.0,0.0,100,0.00,,,0.00,0,TxWx,2013-07-20 02:21:00,
2013-07-19 22:26:00,67.1,67.1,29.91,WNW,300,0.0,0.0,100,0.00,,,0.00,0,TxWx,2013-07-20 02:26:00,
2013-07-19 22:31:00,67.0,67.0,29.91,WNW,300,0.0,0.0,100,0.00,,,0.00,0,TxWx,2013-07-20 02:31:00,
2013-07-19 22:36:00,67.0,67.0,29.90,WNW,300,0.0,0.0,100,0.00,,,0.00,0,TxWx,2013-07-20 02:36:00,
2013-07-19 22:41:00,67.1,67.1,29.91,WNW,299,0.0,0.0,100,0.00,,,0.00,0,TxWx,2013-07-20 02:41:00,
2013-07-19 22:46:00,67.1,67.1,29.92,WNW,299,0.0,0.0,100,0.00,,,0.00,0,TxWx,2013-07-20 02:46:00,
2013-07-19 22:51:00,66.9,66.9,29.92,WNW,299,0.0,0.0,100,0.00,,,0.00,0,TxWx,2013-07-20 02:51:00,
2013-07-19 22:56:00,66.8,66.8,29.92,WNW,299,0.0,0.0,100,0.00,,,0.00,0,TxWx,2013-07-20 02:56:00,
2013-07-19 23:01:00,66.8,66.8,29.92,WNW,299,0.0,0.0,100,0.00,,,0.00,0,TxWx,2013-07-20 03:01:00,
2013-07-19 23:06:00,66.8,66.8,29.92,WNW,302,0.0,0.0,100,0.00,,,0.00,0,TxWx,2013-07-20 03:06:00,
2013-07-19 23:11:00,66.8,66.8,29.92,WNW,298,0.0,0.0,100,0.00,,,0.00,0,TxWx,2013-07-20 03:11:00,
2013-07-19 23:16:00,66.7,66.7,29.92,WNW,303,0.0,0.0,100,0.00,,,0.00,0,TxWx,2013-07-20 03:16:00,
2013-07-19 23:21:00,66.7,66.7,29.92,WNW,302,0.0,0.0,100,0.00,,,0.00,0,TxWx,2013-07-20 03:21:00,
2013-07-19 23:26:00,66.7,66.7,29.92,WNW,302,0.0,0.0,100,0.00,,,0.00,0,TxWx,2013-07-20 03:26:00,
2013-07-19 23:31:00,66.8,66.8,29.92,WNW,303,0.0,0.0,100,0.00,,,0.00,0,TxWx,2013-07-20 03:31:00,
2013-07-19 23:36:00,66.9,66.9,29.92,NW,305,0.0,0.0,100,0.00,,,0.00,0,TxWx,2013-07-20 03:36:00,
2013-07-19 23:41:00,66.8,66.8,29.92,NW,308,0.0,0.0,100,0.00,,,0.00,0,TxWx,2013-07-20 03:41:00,
2013-07-19 23:46:00,66.9,66.9,29.92,NNW,335,0.0,0.0,100,0.00,,,0.00,0,TxWx,2013-07-20 03:46:00,
2013-07-19 23:51:00,66.8,66.8,29.92,NNW,335,0.0,0.0,100,0.00,,,0.00,0,TxWx,2013-07-20 03:51:00,
2013-07-19 23:56:00,66.8,66.8,29.92,NNW,335,0.0,0.0,100,0.00,,,0.00,0,TxWx,2013-07-20 03:56:00,